| time (UTC) | temp F | wind direction | speed MPH | gust MPH | rain 1hr in | rain 24hr in | rain mn in | humidity % | barometer mb |
| 20260906212336 | 75 | 0.0 | 0.0 | 0.00 | 0.01 | 0.01 | 66 | 1021.2 | |
| 20260906211839 | 75 | 0.0 | 0.0 | 0.00 | 0.01 | 0.01 | 66 | 1021.2 | |
| 20260906211323 | 75 | 0.0 | 0.0 | 0.00 | 0.01 | 0.01 | 65 | 1021.2 | |
| 20260906210841 | 75 | 0.0 | 0.0 | 0.00 | 0.01 | 0.01 | 64 | 1021.1 | |
| 20260906210328 | 75 | 0.0 | 0.0 | 0.00 | 0.01 | 0.01 | 65 | 1021.1 | |
| 20260906205841 | 74 | 0.0 | 0.0 | 0.00 | 0.01 | 0.01 | 66 | 1021.1 | |
| 20260906205340 | 74 | 0.0 | 0.0 | 0.00 | 0.01 | 0.01 | 66 | 1021.2 | |
| 20260906204827 | 74 | 0.0 | 0.0 | 0.00 | 0.01 | 0.01 | 68 | 1021.2 | |
| 20260906204334 | 74 | 0.0 | 0.0 | 0.00 | 0.01 | 0.01 | 68 | 1021.2 | |
| 20260906203842 | 74 | 0.0 | 0.0 | 0.00 | 0.01 | 0.01 | 68 | 1021.2 | |
| 20260906203326 | 74 | 0.0 | 0.0 | 0.00 | 0.01 | 0.01 | 69 | 1021.1 | |
| 20260906202835 | 74 | 0.0 | 0.0 | 0.00 | 0.01 | 0.01 | 70 | 1021.1 | |
| 20260906202319 | 74 | 0.0 | 0.0 | 0.00 | 0.01 | 0.01 | 72 | 1021.0 | |
| 20260906201831 | 73 | 0.0 | 0.0 | 0.00 | 0.01 | 0.01 | 72 | 1021.1 | |
| 20260906201343 | 73 | 0.0 | 0.0 | 0.00 | 0.01 | 0.01 | 72 | 1021.2 | |
| 20260906200831 | 74 | 0.0 | 0.0 | 0.00 | 0.01 | 0.01 | 71 | 1021.2 | |
| 20260906200338 | 74 | 0.0 | 0.0 | 0.00 | 0.01 | 0.01 | 72 | 1021.2 | |
| 20260906195324 | 74 | 0.0 | 0.0 | 0.00 | 0.01 | 0.01 | 72 | 1021.3 | |
| 20260906194837 | 74 | 0.0 | 0.0 | 0.00 | 0.01 | 0.01 | 72 | 1021.2 | |
| 20260906194320 | 74 | 0.0 | 0.0 | 0.00 | 0.01 | 0.01 | 72 | 1021.2 | |
| 20260906193827 | 74 | 0.0 | 0.0 | 0.00 | 0.01 | 0.01 | 71 | 1021.2 | |
| 20260906193335 | 75 | 0.0 | 0.0 | 0.00 | 0.01 | 0.01 | 70 | 1021.2 | |
| 20260906192841 | 75 | 0.0 | 0.0 | 0.00 | 0.01 | 0.01 | 68 | 1021.1 | |
| 20260906192336 | 75 | 0.0 | 0.0 | 0.00 | 0.01 | 0.01 | 70 | 1021.2 | |
| 20260906191820 | 75 | 0.0 | 0.0 | 0.00 | 0.01 | 0.01 | 69 | 1021.2 | |
| 20260906191316 | 74 | 0.0 | 0.0 | 0.00 | 0.01 | 0.01 | 71 | 1021.3 | |
| 20260906190830 | 74 | 0.0 | 0.0 | 0.00 | 0.01 | 0.01 | 66 | 1021.3 | |
| 20260906190324 | 74 | 0.0 | 0.0 | 0.00 | 0.01 | 0.01 | 67 | 1021.3 | |
| 20260906185833 | 75 | 0.0 | 0.0 | 0.00 | 0.01 | 0.01 | 71 | 1021.4 | |
| 20260906185340 | 74 | 0.0 | 0.0 | 0.00 | 0.01 | 0.01 | 71 | 1021.4 | |
| 20260906184828 | 74 | 0.0 | 0.0 | 0.00 | 0.01 | 0.01 | 70 | 1021.4 | |
| 20260906184338 | 74 | 0.0 | 0.0 | 0.00 | 0.01 | 0.01 | 73 | 1021.5 | |
| 20260906183826 | 73 | 0.0 | 0.0 | 0.00 | 0.01 | 0.01 | 73 | 1021.5 | |
| 20260906183340 | 74 | 0.0 | 0.0 | 0.00 | 0.01 | 0.01 | 68 | 1021.5 | |
| 20260906182821 | 74 | 0.0 | 0.0 | 0.00 | 0.01 | 0.01 | 71 | 1021.4 | |
| 20260906182335 | 73 | 0.0 | 0.0 | 0.00 | 0.01 | 0.01 | 74 | 1021.5 | |
| 20260906181819 | 73 | 0.0 | 0.0 | 0.00 | 0.01 | 0.01 | 75 | 1021.6 | |
| 20260906181329 | 72 | 0.0 | 0.0 | 0.00 | 0.01 | 0.01 | 73 | 1021.6 | |
| 20260906180833 | 73 | 0.0 | 0.0 | 0.00 | 0.01 | 0.01 | 74 | 1021.7 | |
| 20260906180342 | 73 | 0.0 | 0.0 | 0.00 | 0.01 | 0.01 | 73 | 1021.7 | |
| 20260906175836 | 74 | 0.0 | 0.0 | 0.00 | 0.01 | 0.01 | 70 | 1021.7 | |
| 20260906175323 | 73 | 0.0 | 0.0 | 0.00 | 0.01 | 0.01 | 66 | 1021.7 | |
| 20260906174840 | 74 | 0.0 | 0.0 | 0.00 | 0.01 | 0.01 | 69 | 1021.7 | |
| 20260906174329 | 73 | 0.0 | 0.0 | 0.00 | 0.01 | 0.01 | 65 | 1021.8 | |
| 20260906173824 | 73 | 0.0 | 0.0 | 0.00 | 0.01 | 0.01 | 70 | 1021.9 | |
| 20260906173315 | 73 | 0.0 | 0.0 | 0.00 | 0.01 | 0.01 | 70 | 1022.0 | |
| 20260906172824 | 73 | 0.0 | 0.0 | 0.00 | 0.01 | 0.01 | 66 | 1022.1 | |
| 20260906172336 | 73 | 0.0 | 0.0 | 0.00 | 0.01 | 0.01 | 69 | 1022.1 | |
| 20260906171818 | 73 | 0.0 | 0.0 | 0.00 | 0.01 | 0.01 | 72 | 1022.1 | |
| 20260906171332 | 73 | 0.0 | 0.0 | 0.00 | 0.01 | 0.01 | 71 | 1022.1 | |
| 20260906170818 | 73 | 0.0 | 0.0 | 0.00 | 0.01 | 0.01 | 72 | 1022.2 | |
| 20260906170332 | 74 | 0.0 | 0.0 | 0.00 | 0.01 | 0.01 | 70 | 1022.3 | |
| 20260906165837 | 74 | 0.0 | 0.0 | 0.00 | 0.01 | 0.01 | 68 | 1022.3 | |
| 20260906165340 | 74 | 0.0 | 0.0 | 0.00 | 0.01 | 0.01 | 68 | 1022.5 | |
| 20260906164842 | 74 | 0.0 | 0.0 | 0.00 | 0.01 | 0.01 | 64 | 1022.5 | |
| 20260906164328 | 74 | 0.0 | 0.0 | 0.00 | 0.01 | 0.01 | 63 | 1022.5 | |
| 20260906163833 | 74 | 0.0 | 0.0 | 0.00 | 0.01 | 0.01 | 63 | 1022.4 | |
| 20260906163316 | 74 | 0.0 | 0.0 | 0.00 | 0.01 | 0.01 | 61 | 1022.5 | |
| 20260906162830 | 74 | 0.0 | 0.0 | 0.00 | 0.01 | 0.01 | 62 | 1022.6 | |
| 20260906162317 | 74 | 0.0 | 0.0 | 0.00 | 0.01 | 0.01 | 62 | 1022.6 | |
| 20260906161835 | 74 | 0.0 | 0.0 | 0.00 | 0.01 | 0.01 | 62 | 1022.6 | |
| 20260906161338 | 74 | 0.0 | 0.0 | 0.00 | 0.01 | 0.01 | 62 | 1022.7 | |
| 20260906160827 | 73 | 0.0 | 0.0 | 0.00 | 0.01 | 0.01 | 61 | 1022.6 | |
| 20260906160316 | 73 | 0.0 | 0.0 | 0.00 | 0.01 | 0.01 | 63 | 1022.5 | |
| 20260906155830 | 73 | 0.0 | 0.0 | 0.00 | 0.01 | 0.01 | 65 | 1022.5 | |
| 20260906155338 | 73 | 0.0 | 0.0 | 0.00 | 0.01 | 0.01 | 64 | 1022.5 | |
| 20260906154824 | 72 | 0.0 | 0.0 | 0.00 | 0.01 | 0.01 | 65 | 1022.5 | |
| 20260906154343 | 72 | 0.0 | 0.0 | 0.00 | 0.01 | 0.01 | 69 | 1022.5 | |
| 20260906153828 | 72 | 0.0 | 0.0 | 0.00 | 0.01 | 0.01 | 70 | 1022.6 | |
| 20260906153339 | 72 | 0.0 | 0.0 | 0.00 | 0.01 | 0.01 | 73 | 1022.6 | |
| 20260906152818 | 72 | 0.0 | 0.0 | 0.00 | 0.01 | 0.01 | 76 | 1022.6 | |
| 20260906152333 | 71 | 0.0 | 0.0 | 0.00 | 0.01 | 0.01 | 75 | 1022.7 | |
| 20260906151836 | 71 | 0.0 | 0.0 | 0.00 | 0.01 | 0.01 | 77 | 1022.6 | |
| 20260906151340 | 71 | 0.0 | 0.0 | 0.00 | 0.01 | 0.01 | 77 | 1022.6 | |
| 20260906150834 | 71 | 0.0 | 0.0 | 0.00 | 0.01 | 0.01 | 77 | 1022.4 | |
| 20260906150321 | 71 | 0.0 | 0.0 | 0.00 | 0.01 | 0.01 | 79 | 1022.4 | |
| 20260906145816 | 71 | 0.0 | 0.0 | 0.00 | 0.01 | 0.01 | 80 | 1022.4 | |
| 20260906144838 | 70 | 0.0 | 0.0 | 0.00 | 0.01 | 0.01 | 82 | 1022.4 | |
| 20260906144327 | 69 | 0.0 | 0.0 | 0.00 | 0.01 | 0.01 | 81 | 1022.4 | |
| 20260906143836 | 69 | 0.0 | 0.0 | 0.00 | 0.01 | 0.01 | 82 | 1022.3 | |
| 20260906143322 | 68 | 0.0 | 0.0 | 0.00 | 0.01 | 0.01 | 83 | 1022.4 | |
| 20260906142835 | 68 | 0.0 | 0.0 | 0.00 | 0.01 | 0.01 | 85 | 1022.4 | |
| 20260906142339 | 68 | 0.0 | 0.0 | 0.00 | 0.01 | 0.01 | 86 | 1022.3 | |
| 20260906141333 | 67 | 0.0 | 0.0 | 0.00 | 0.01 | 0.01 | 87 | 1022.3 | |
| 20260906140838 | 66 | 0.0 | 0.0 | 0.00 | 0.01 | 0.01 | 88 | 1022.4 | |
| 20260906140344 | 66 | 0.0 | 0.0 | 0.00 | 0.01 | 0.01 | 86 | 1022.4 | |
| 20260906135826 | 65 | 0.0 | 0.0 | 0.00 | 0.01 | 0.01 | 83 | 1022.4 | |
| 20260906135343 | 64 | 0.0 | 0.0 | 0.00 | 0.01 | 0.01 | 76 | 1022.5 | |
| 20260906134827 | 63 | 0.0 | 0.0 | 0.00 | 0.01 | 0.01 | 74 | 1022.4 | |
| 20260906134320 | 62 | 0.0 | 0.0 | 0.00 | 0.01 | 0.01 | 73 | 1022.4 | |
| 20260906133830 | 61 | 0.0 | 0.0 | 0.00 | 0.01 | 0.01 | 73 | 1022.4 | |
| 20260906133319 | 61 | 0.0 | 0.0 | 0.00 | 0.01 | 0.01 | 69 | 1022.3 | |
| 20260906132321 | 59 | 0.0 | 0.0 | 0.00 | 0.01 | 0.01 | 67 | 1022.3 | |
| 20260906131834 | 58 | 0.0 | 0.0 | 0.00 | 0.01 | 0.01 | 66 | 1022.2 | |
| 20260906131317 | 58 | 0.0 | 0.0 | 0.00 | 0.01 | 0.01 | 65 | 1022.3 | |
| 20260906130833 | 57 | 0.0 | 0.0 | 0.00 | 0.01 | 0.01 | 65 | 1022.3 | |
| 20260906130334 | 57 | 0.0 | 0.0 | 0.00 | 0.01 | 0.01 | 65 | 1022.3 | |
| 20260906125840 | 56 | 0.0 | 0.0 | 0.00 | 0.01 | 0.01 | 65 | 1022.2 | |
| 20260906124835 | 55 | 0.0 | 0.0 | 0.00 | 0.01 | 0.01 | 65 | 1022.1 | |
| 20260906124319 | 55 | 0.0 | 0.0 | 0.00 | 0.01 | 0.01 | 65 | 1022.0 | |
| 20260906123835 | 54 | 0.0 | 0.0 | 0.00 | 0.01 | 0.01 | 65 | 1022.0 | |
| 20260906123320 | 53 | 0.0 | 0.0 | 0.00 | 0.01 | 0.01 | 65 | 1022.0 | |
| 20260906122832 | 53 | 0.0 | 0.0 | 0.00 | 0.01 | 0.01 | 66 | 1022.0 | |
| 20260906122317 | 52 | 0.0 | 0.0 | 0.00 | 0.01 | 0.01 | 66 | 1022.0 | |
| 20260906121828 | 52 | 0.0 | 0.0 | 0.00 | 0.01 | 0.01 | 66 | 1021.9 | |
| 20260906121333 | 52 | 0.0 | 0.0 | 0.00 | 0.01 | 0.01 | 66 | 1021.9 | |
| 20260906120819 | 51 | 0.0 | 0.0 | 0.00 | 0.01 | 0.01 | 66 | 1022.0 | |
| 20260906120337 | 51 | 0.0 | 0.0 | 0.00 | 0.01 | 0.01 | 66 | 1021.9 | |
| 20260906115820 | 50 | 0.0 | 0.0 | 0.00 | 0.01 | 0.01 | 66 | 1021.9 | |
| 20260906115338 | 50 | 0.0 | 0.0 | 0.00 | 0.01 | 0.01 | 67 | 1021.9 | |
| 20260906114839 | 49 | 0.0 | 0.0 | 0.00 | 0.01 | 0.01 | 67 | 1021.8 | |
| 20260906114326 | 49 | 0.0 | 0.0 | 0.00 | 0.01 | 0.01 | 67 | 1021.8 | |
| 20260906113834 | 49 | 0.0 | 0.0 | 0.00 | 0.01 | 0.01 | 67 | 1021.7 | |
| 20260906113321 | 48 | 0.0 | 0.0 | 0.00 | 0.01 | 0.01 | 68 | 1021.6 | |
| 20260906112831 | 48 | 0.0 | 0.0 | 0.00 | 0.01 | 0.01 | 68 | 1021.6 | |
| 20260906112337 | 48 | 0.0 | 0.0 | 0.00 | 0.01 | 0.01 | 68 | 1021.5 | |
| 20260906111841 | 49 | 0.0 | 0.0 | 0.00 | 0.01 | 0.01 | 68 | 1021.5 | |
| 20260906111323 | 49 | 0.0 | 0.0 | 0.01 | 0.01 | 0.01 | 68 | 1021.5 | |
| 20260906110832 | 48 | 0.0 | 0.0 | 0.01 | 0.01 | 0.01 | 68 | 1021.5 | |
| 20260906110318 | 48 | 0.0 | 0.0 | 0.01 | 0.01 | 0.01 | 68 | 1021.5 | |
| 20260906105830 | 49 | 0.0 | 0.0 | 0.01 | 0.01 | 0.01 | 68 | 1021.5 | |
| 20260906105343 | 49 | 0.0 | 0.0 | 0.01 | 0.01 | 0.01 | 69 | 1021.5 | |
| 20260906104829 | 49 | 0.0 | 0.0 | 0.01 | 0.01 | 0.01 | 69 | 1021.5 | |
| 20260906104341 | 49 | 0.0 | 0.0 | 0.01 | 0.01 | 0.01 | 68 | 1021.6 | |
| 20260906103824 | 49 | 0.0 | 0.0 | 0.01 | 0.01 | 0.01 | 68 | 1021.5 | |
| 20260906103339 | 49 | 0.0 | 0.0 | 0.01 | 0.01 | 0.01 | 68 | 1021.5 | |
| 20260906102821 | 49 | 0.0 | 0.0 | 0.01 | 0.01 | 0.01 | 68 | 1021.5 | |
| 20260906102330 | 49 | 0.0 | 0.0 | 0.01 | 0.01 | 0.01 | 69 | 1021.5 | |
| 20260906101844 | 49 | 0.0 | 0.0 | 0.01 | 0.01 | 0.01 | 68 | 1021.5 | |
| 20260906101327 | 49 | 0.0 | 0.0 | 0.00 | 0.00 | 0.00 | 68 | 1021.5 | |
| 20260906100833 | 50 | 0.0 | 0.0 | 0.00 | 0.00 | 0.00 | 68 | 1021.4 | |
| 20260906095841 | 50 | 0.0 | 0.0 | 0.00 | 0.00 | 0.00 | 68 | 1021.4 | |
| 20260906095342 | 50 | 0.0 | 0.0 | 0.00 | 0.00 | 0.00 | 68 | 1021.3 | |
| 20260906094826 | 50 | 0.0 | 0.0 | 0.00 | 0.00 | 0.00 | 68 | 1021.2 | |
| 20260906094339 | 50 | 0.0 | 0.0 | 0.00 | 0.00 | 0.00 | 68 | 1021.2 | |
| 20260906093843 | 50 | 0.0 | 0.0 | 0.00 | 0.00 | 0.00 | 69 | 1021.1 | |
| 20260906093327 | 50 | 0.0 | 0.0 | 0.00 | 0.00 | 0.00 | 68 | 1021.1 | |
| 20260906092820 | 50 | 0.0 | 0.0 | 0.00 | 0.00 | 0.00 | 68 | 1021.0 | |
| 20260906092334 | 50 | 0.0 | 0.0 | 0.00 | 0.00 | 0.00 | 68 | 1021.0 | |
| 20260906091838 | 50 | 0.0 | 0.0 | 0.00 | 0.00 | 0.00 | 68 | 1021.1 | |
| 20260906091318 | 50 | 0.0 | 0.0 | 0.00 | 0.00 | 0.00 | 68 | 1021.0 | |
| 20260906090830 | 50 | 0.0 | 0.0 | 0.00 | 0.00 | 0.00 | 68 | 1021.0 | |
| 20260906090338 | 50 | 0.0 | 0.0 | 0.00 | 0.00 | 0.00 | 69 | 1020.9 | |
| 20260906085841 | 50 | 0.0 | 0.0 | 0.00 | 0.00 | 0.00 | 69 | 1020.9 | |
| 20260906085339 | 50 | 0.0 | 0.0 | 0.00 | 0.00 | 0.00 | 69 | 1021.0 | |
| 20260906084822 | 50 | 0.0 | 0.0 | 0.00 | 0.00 | 0.00 | 69 | 1020.9 | |
| 20260906084334 | 51 | 0.0 | 0.0 | 0.00 | 0.00 | 0.00 | 69 | 1020.9 | |
| 20260906083340 | 51 | 0.0 | 0.0 | 0.00 | 0.00 | 0.00 | 68 | 1020.7 | |
| 20260906082843 | 51 | 0.0 | 0.0 | 0.00 | 0.00 | 0.00 | 68 | 1020.6 | |
| 20260906082331 | 51 | 0.0 | 0.0 | 0.00 | 0.00 | 0.00 | 68 | 1020.6 | |
| 20260906081818 | 51 | 0.0 | 0.0 | 0.00 | 0.00 | 0.00 | 68 | 1020.5 | |
| 20260906081335 | 51 | 0.0 | 0.0 | 0.00 | 0.00 | 0.00 | 68 | 1020.4 | |
| 20260906080821 | 51 | 0.0 | 0.0 | 0.00 | 0.00 | 0.00 | 68 | 1020.5 | |
| 20260906080337 | 52 | 0.0 | 0.0 | 0.00 | 0.00 | 0.00 | 68 | 1020.5 | |
| 20260906075819 | 52 | 0.0 | 0.0 | 0.00 | 0.00 | 0.00 | 68 | 1020.5 | |
| 20260906075334 | 52 | 0.0 | 0.0 | 0.00 | 0.00 | 0.00 | 67 | 1020.4 | |
| 20260906074333 | 51 | 0.0 | 0.0 | 0.00 | 0.00 | 0.00 | 67 | 1020.4 | |
| 20260906073820 | 51 | 0.0 | 0.0 | 0.00 | 0.00 | 0.00 | 69 | 1020.4 | |
| 20260906073335 | 51 | 0.0 | 0.0 | 0.00 | 0.00 | 0.00 | 68 | 1020.4 | |
| 20260906072819 | 51 | 0.0 | 0.0 | 0.00 | 0.00 | 0.00 | 69 | 1020.4 | |
| 20260906072330 | 51 | 0.0 | 0.0 | 0.00 | 0.00 | 0.00 | 69 | 1020.2 | |
| 20260906071835 | 51 | 0.0 | 0.0 | 0.00 | 0.00 | 0.00 | 69 | 1020.2 | |
| 20260906070824 | 52 | 0.0 | 0.0 | 0.00 | 0.00 | 0.00 | 69 | 1020.2 | |
| 20260906070317 | 52 | 0.0 | 0.0 | 0.00 | 0.00 | 0.00 | 69 | 1020.2 | |
| 20260906065826 | 52 | 0.0 | 0.0 | 0.00 | 0.00 | 0.00 | 69 | 1020.1 | |
| 20260906065340 | 52 | 0.0 | 0.0 | 0.00 | 0.00 | 0.00 | 69 | 1020.3 | |
| 20260906064838 | 52 | 0.0 | 0.0 | 0.00 | 0.00 | 0.00 | 69 | 1020.3 | |
| 20260906064324 | 52 | 0.0 | 0.0 | 0.00 | 0.00 | 0.00 | 69 | 1020.3 | |
| 20260906063838 | 52 | 0.0 | 0.0 | 0.00 | 0.00 | 0.00 | 69 | 1020.4 | |
| 20260906063324 | 52 | 0.0 | 0.0 | 0.00 | 0.00 | 0.00 | 69 | 1020.4 | |
| 20260906062843 | 53 | 0.0 | 0.0 | 0.00 | 0.00 | 0.00 | 69 | 1020.4 | |
| 20260906061840 | 53 | 0.0 | 0.0 | 0.00 | 0.00 | 0.00 | 69 | 1020.2 | |
| 20260906061320 | 53 | 0.0 | 0.0 | 0.00 | 0.00 | 0.00 | 69 | 1020.2 | |
| 20260906060831 | 53 | 0.0 | 0.0 | 0.00 | 0.00 | 0.00 | 69 | 1020.2 | |
| 20260906060343 | 53 | 0.0 | 0.0 | 0.00 | 0.00 | 0.00 | 69 | 1020.1 | |
| 20260906055826 | 53 | 0.0 | 0.0 | 0.00 | 0.00 | 0.00 | 70 | 1020.1 | |
| 20260906055339 | 53 | 0.0 | 0.0 | 0.00 | 0.00 | 0.00 | 70 | 1020.2 | |
| 20260906054823 | 53 | 0.0 | 0.0 | 0.00 | 0.00 | 0.00 | 69 | 1020.2 | |
| 20260906054336 | 54 | 0.0 | 0.0 | 0.00 | 0.00 | 0.00 | 69 | 1020.2 | |
| 20260906053822 | 54 | 0.0 | 0.0 | 0.00 | 0.00 | 0.00 | 69 | 1020.2 | |
| 20260906053331 | 54 | 0.0 | 0.0 | 0.00 | 0.00 | 0.00 | 69 | 1020.2 | |
| 20260906052843 | 53 | 0.0 | 0.0 | 0.00 | 0.00 | 0.00 | 70 | 1020.1 | |
| 20260906052328 | 54 | 0.0 | 0.0 | 0.00 | 0.00 | 0.00 | 71 | 1020.1 | |
| 20260906051835 | 54 | 0.0 | 0.0 | 0.00 | 0.00 | 0.00 | 69 | 1020.1 | |
| 20260906051322 | 54 | 0.0 | 0.0 | 0.00 | 0.00 | 0.00 | 68 | 1020.1 | |
| 20260906050835 | 54 | 0.0 | 0.0 | 0.00 | 0.00 | 0.00 | 69 | 1020.1 | |
| 20260906050339 | 54 | 0.0 | 0.0 | 0.00 | 0.00 | 0.00 | 69 | 1020.1 | |
| 20260906045331 | 54 | 0.0 | 0.0 | 0.00 | 0.00 | 0.00 | 70 | 1020.0 | |
| 20260906044834 | 54 | 0.0 | 0.0 | 0.00 | 0.00 | 0.00 | 71 | 1020.0 | |
| 20260906044343 | 55 | 0.0 | 0.0 | 0.00 | 0.00 | 0.00 | 71 | 1020.1 | |
| 20260906043839 | 55 | 0.0 | 0.0 | 0.00 | 0.00 | 0.00 | 70 | 1020.0 | |
| 20260906043325 | 55 | 0.0 | 0.0 | 0.00 | 0.00 | 0.00 | 69 | 1020.0 | |
| 20260906042839 | 55 | 0.0 | 0.0 | 0.00 | 0.00 | 0.00 | 70 | 1020.1 | |
| 20260906041832 | 55 | 0.0 | 0.0 | 0.00 | 0.00 | 0.00 | 71 | 1020.1 | |
| 20260906041339 | 55 | 0.0 | 0.0 | 0.00 | 0.00 | 0.00 | 71 | 1020.1 | |
| 20260906040839 | 55 | 0.0 | 0.0 | 0.00 | 0.00 | 0.00 | 72 | 1019.9 | |
| 20260906040324 | 55 | 0.0 | 0.0 | 0.00 | 0.00 | 0.00 | 72 | 1019.9 | |
| 20260906035842 | 55 | 0.0 | 0.0 | 0.00 | 0.00 | 0.00 | 71 | 1019.8 | |
| 20260906035325 | 56 | 0.0 | 0.0 | 0.00 | 0.00 | 0.00 | 71 | 1019.8 | |
| 20260906034835 | 56 | 0.0 | 0.0 | 0.00 | 0.00 | 0.00 | 72 | 1019.8 | |
| 20260906034317 | 56 | 0.0 | 0.0 | 0.00 | 0.00 | 0.00 | 71 | 1019.7 | |
| 20260906033832 | 56 | 0.0 | 0.0 | 0.00 | 0.00 | 0.00 | 71 | 1019.6 | |
| 20260906032842 | 56 | 0.0 | 0.0 | 0.00 | 0.00 | 0.00 | 73 | 1019.6 | |
| 20260906032331 | 56 | 0.0 | 0.0 | 0.00 | 0.00 | 0.00 | 72 | 1019.5 | |
| 20260906031820 | 56 | 0.0 | 0.0 | 0.00 | 0.00 | 0.00 | 74 | 1019.5 | |
| 20260906031333 | 56 | 0.0 | 0.0 | 0.00 | 0.00 | 0.00 | 74 | 1019.5 | |
| 20260906030836 | 56 | 0.0 | 0.0 | 0.00 | 0.00 | 0.00 | 73 | 1019.4 | |
| 20260906030320 | 57 | 0.0 | 0.0 | 0.00 | 0.00 | 0.00 | 74 | 1019.4 | |
| 20260906025835 | 57 | 0.0 | 0.0 | 0.00 | 0.00 | 0.00 | 75 | 1019.4 | |
| 20260906025322 | 57 | 0.0 | 0.0 | 0.00 | 0.00 | 0.00 | 75 | 1019.4 | |
| 20260906024835 | 57 | 0.0 | 0.0 | 0.00 | 0.00 | 0.00 | 74 | 1019.4 | |
| 20260906024321 | 57 | 0.0 | 0.0 | 0.00 | 0.00 | 0.00 | 75 | 1019.3 | |
| 20260906023835 | 58 | 0.0 | 0.0 | 0.00 | 0.00 | 0.00 | 75 | 1019.3 | |
| 20260906023320 | 58 | 0.0 | 0.0 | 0.00 | 0.00 | 0.00 | 75 | 1019.3 | |
| 20260906022829 | 58 | 0.0 | 0.0 | 0.00 | 0.00 | 0.00 | 76 | 1019.3 | |
| 20260906022317 | 58 | 0.0 | 0.0 | 0.00 | 0.00 | 0.00 | 75 | 1019.2 | |
| 20260906021831 | 58 | 0.0 | 0.0 | 0.00 | 0.00 | 0.00 | 76 | 1019.1 | |
| 20260906021338 | 58 | 0.0 | 0.0 | 0.00 | 0.00 | 0.00 | 77 | 1019.1 | |
| 20260906020323 | 59 | 0.0 | 0.0 | 0.00 | 0.00 | 0.00 | 78 | 1019.1 | |
| 20260906015836 | 59 | 0.0 | 0.0 | 0.00 | 0.00 | 0.00 | 79 | 1019.1 | |
| 20260906015337 | 59 | 0.0 | 0.0 | 0.00 | 0.00 | 0.00 | 80 | 1019.1 | |
| 20260906014826 | 59 | 0.0 | 0.0 | 0.00 | 0.00 | 0.00 | 80 | 1019.1 | |
| 20260906014334 | 59 | 0.0 | 0.0 | 0.00 | 0.00 | 0.00 | 81 | 1019.1 | |
| 20260906013839 | 60 | 0.0 | 0.0 | 0.00 | 0.00 | 0.00 | 82 | 1019.1 | |
| 20260906012836 | 60 | 0.0 | 0.0 | 0.00 | 0.00 | 0.00 | 83 | 1019.1 | |
| 20260906012320 | 60 | 0.0 | 0.0 | 0.00 | 0.00 | 0.00 | 84 | 1019.1 | |
| 20260906011832 | 61 | 0.0 | 0.0 | 0.00 | 0.00 | 0.00 | 85 | 1019.0 | |
| 20260906011337 | 61 | 0.0 | 0.0 | 0.00 | 0.00 | 0.00 | 85 | 1019.0 | |
| 20260906010841 | 61 | 0.0 | 0.0 | 0.00 | 0.00 | 0.00 | 86 | 1019.0 | |
| 20260906010326 | 62 | 0.0 | 0.0 | 0.00 | 0.00 | 0.00 | 86 | 1019.0 | |
| 20260906005820 | 62 | 0.0 | 0.0 | 0.00 | 0.00 | 0.00 | 86 | 1019.0 | |
| 20260906005337 | 63 | 0.0 | 0.0 | 0.00 | 0.00 | 0.00 | 86 | 1019.0 | |
| 20260906004840 | 63 | 0.0 | 0.0 | 0.00 | 0.00 | 0.00 | 86 | 1019.0 | |
| 20260906004327 | 63 | 0.0 | 0.0 | 0.00 | 0.00 | 0.00 | 86 | 1019.0 | |
| 20260906003834 | 64 | 0.0 | 0.0 | 0.00 | 0.00 | 0.00 | 85 | 1019.1 | |
| 20260906003339 | 64 | 0.0 | 0.0 | 0.00 | 0.00 | 0.00 | 85 | 1019.1 | |
| 20260906002841 | 65 | 0.0 | 0.0 | 0.00 | 0.00 | 0.00 | 84 | 1019.0 | |
| 20260906002336 | 65 | 0.0 | 0.0 | 0.00 | 0.00 | 0.00 | 83 | 1019.1 | |
| 20260906001822 | 66 | 0.0 | 0.0 | 0.00 | 0.00 | 0.00 | 82 | 1018.9 | |
| 20260906001332 | 67 | 0.0 | 0.0 | 0.00 | 0.00 | 0.00 | 82 | 1018.9 | |
| 20260906000337 | 68 | 0.0 | 0.0 | 0.00 | 0.00 | 0.00 | 80 | 1018.8 | |
| 20260905235842 | 69 | 0.0 | 0.0 | 0.00 | 0.00 | 0.00 | 78 | 1018.7 | |
| 20260905235327 | 70 | 0.0 | 0.0 | 0.00 | 0.00 | 0.00 | 75 | 1018.7 | |
| 20260905234837 | 70 | 0.0 | 0.0 | 0.00 | 0.00 | 0.00 | 73 | 1018.7 | |
| 20260905234321 | 71 | 0.0 | 0.0 | 0.00 | 0.00 | 0.00 | 71 | 1018.6 | |
| 20260905233816 | 71 | 0.0 | 0.0 | 0.00 | 0.00 | 0.00 | 70 | 1018.6 | |
| 20260905233337 | 71 | 0.0 | 0.0 | 0.00 | 0.00 | 0.00 | 67 | 1018.5 | |
| 20260905232838 | 72 | 0.0 | 0.0 | 0.00 | 0.00 | 0.00 | 65 | 1018.6 | |
| 20260905232341 | 72 | 0.0 | 0.0 | 0.00 | 0.00 | 0.00 | 65 | 1018.5 | |
| 20260905231828 | 72 | 0.0 | 0.0 | 0.00 | 0.00 | 0.00 | 63 | 1018.6 | |
| 20260905231319 | 72 | 0.0 | 0.0 | 0.00 | 0.00 | 0.00 | 62 | 1018.6 | |
| 20260905230832 | 73 | 0.0 | 0.0 | 0.00 | 0.00 | 0.00 | 61 | 1018.6 | |
| 20260905230319 | 73 | 0.0 | 0.0 | 0.00 | 0.00 | 0.00 | 62 | 1018.6 | |
| 20260905225832 | 73 | 0.0 | 0.0 | 0.00 | 0.00 | 0.00 | 61 | 1018.6 | |
| 20260905225317 | 73 | 0.0 | 0.0 | 0.00 | 0.00 | 0.00 | 61 | 1018.4 | |
| 20260905224835 | 73 | 0.0 | 0.0 | 0.00 | 0.00 | 0.00 | 62 | 1018.4 | |
| 20260905224316 | 73 | 0.0 | 0.0 | 0.00 | 0.00 | 0.00 | 62 | 1018.4 | |
| 20260905223829 | 74 | 0.0 | 0.0 | 0.00 | 0.00 | 0.00 | 61 | 1018.4 | |
| 20260905223334 | 74 | 0.0 | 0.0 | 0.00 | 0.00 | 0.00 | 61 | 1018.4 | |
| 20260905222838 | 74 | 0.0 | 0.0 | 0.00 | 0.00 | 0.00 | 60 | 1018.3 | |
| 20260905222323 | 75 | 0.0 | 0.0 | 0.00 | 0.00 | 0.00 | 59 | 1018.2 | |
| 20260905221837 | 75 | 0.0 | 0.0 | 0.00 | 0.00 | 0.00 | 59 | 1018.3 | |
| 20260905221325 | 75 | 0.0 | 0.0 | 0.00 | 0.00 | 0.00 | 58 | 1018.2 | |
| 20260905220822 | 75 | 0.0 | 0.0 | 0.00 | 0.00 | 0.00 | 58 | 1018.1 | |
| 20260905220332 | 75 | 0.0 | 0.0 | 0.00 | 0.00 | 0.00 | 59 | 1018.1 | |
| 20260905215839 | 75 | 0.0 | 0.0 | 0.00 | 0.00 | 0.00 | 59 | 1018.1 | |
| 20260905215345 | 75 | 0.0 | 0.0 | 0.00 | 0.00 | 0.00 | 58 | 1018.1 | |
| 20260905214829 | 76 | 0.0 | 0.0 | 0.00 | 0.00 | 0.00 | 58 | 1018.1 | |
| 20260905214320 | 76 | 0.0 | 0.0 | 0.00 | 0.00 | 0.00 | 58 | 1018.1 | |
| 20260905213836 | 76 | 0.0 | 0.0 | 0.00 | 0.00 | 0.00 | 58 | 1018.1 | |
| 20260905213324 | 75 | 0.0 | 0.0 | 0.00 | 0.00 | 0.00 | 58 | 1018.0 | |
| 20260905212838 | 76 | 0.0 | 0.0 | 0.00 | 0.00 | 0.00 | 57 | 1018.0 |